Hourly Weather Roundup
Issued by NWS Central Illinois

Home | Current Version | Previous Version | Text Only | Print | Product List | Glossary On
Versions: 1 2 3 4 5 6 7 8 9 10 11 12 13 14 15 16 17 18 19 20 21 22 23 24 25 26 27 28 29 30 31 32 33 34 35 36 37 38 39 40 41 42 43 44 45 46 47 48 49 50
538
NZUS43 KILX 250810
HWRILX

AREA WEATHER ROUNDUP
NATIONAL WEATHER SERVICE, LINCOLN IL
300 AM CDT WED MAY 25 2016


CITY           SKY/WX    TMP DP  RH WIND       PRES   REMARKS
BLOOMINGTON    MOCLDY    67  65  93 SW8       30.02F
CHAMPAIGN      MOCLDY    64  58  80 S5        30.02F
DANVILLE       CLOUDY    68  58  70 SW5       30.00F
DECATUR        CLOUDY    66  61  84 SW7       30.02R
EFFINGHAM      CLOUDY    65  65 100 CALM      30.04S
FLORA          PTCLDY    65  63  93 CALM      30.03S
GALESBURG      CLOUDY    65  61  88 S3        29.97F
JACKSONVILLE   CLOUDY    65  61  87 SE6       29.98F
LACON          CLEAR     68  63  84 SE5       29.98S
LAWRENCEVILLE  PTCLDY    65  61  87 CALM      30.04S
LITCHFIELD     CLOUDY    63  61  93 SE5       30.00F
$$


CITY           SKY/WX    TMP DP  RH WIND       PRES   REMARKS
LINCOLN        CLOUDY    66  64  93 S5        30.00F
MACOMB         CLOUDY    64  61  91 S3        29.99F
MATTOON        MOCLDY    66  60  81 SW5       30.02S
MT CARMEL AP   CLEAR     64  59  85 CALM      30.04S
OLNEY-NOBLE AP CLOUDY    63  63 100 CALM      30.04S
PARIS          CLOUDY    66  59  78 CALM      30.04S
PEORIA         CLOUDY    67  62  84 S5        29.99S
PONTIAC        PTCLDY    71  64  81 S7        30.01F
RANTOUL        CLOUDY    68  60  76 CALM      30.02S
ROBINSON       CLOUDY    63  59  87 S3        30.05S
SPRINGFIELD    MOCLDY    66  62  87 S7        30.00S
TAYLORVILLE    CLOUDY    64  62  93 S3        30.01F
$$

...REGIONAL REPORTS...


CITY           SKY/WX    TMP DP  RH WIND       PRES   REMARKS
CHICAGO O`HARE MOCLDY    71  61  70 SW8       29.98F
KANKAKEE       CLOUDY   N/A N/A N/A S6        30.02F
MOLINE         CLOUDY    67  60  78 CALM      29.95F
MOUNT STERLING MOCLDY    61  60  96 SE6       29.96F
MOUNT VERNON   PTCLDY    61  57  88 CALM      30.04S
PITTSFIELD     CLOUDY    62  61  96 SE5       29.97F
QUINCY         CLOUDY    63  61  93 SE5       29.94F
ROCKFORD       PTCLDY    68  60  75 S3        29.99S
$$


CITY           SKY/WX    TMP DP  RH WIND       PRES   REMARKS
BURLINGTON     CLOUDY    62  62 100 S5        29.94F
CEDAR RAPIDS   CLOUDY    65  64  97 S3        29.92F
DES MOINES     CLOUDY    68  63  84 E7        29.84F
KIRKSVILLE     MOCLDY    63  62  97 S8        29.92F
OTTUMWA        CLOUDY    64  63  96 SE8       29.90F
ST LOUIS       CLOUDY    67  61  81 SE8       29.98F
$$


CITY           SKY/WX    TMP DP  RH WIND       PRES   REMARKS
TERRE HAUTE    CLOUDY    65  57  75 CALM      30.04S
EVANSVILLE     CLEAR     63  59  87 CALM      30.05S
INDIANAPOLIS   CLOUDY    67  56  67 SE5       30.05R
LAFAYETTE      CLOUDY    65  55  70 CALM      30.02F
MADISON        MOCLDY    62  59  90 CALM      29.97R
MILWAUKEE      PTCLDY    62  52  69 CALM      29.97S
$$






USA.gov is the U.S. government's official web portal to all federal, state and local government web resources and services.